Location: Palomar Mountain Lodge
(33.3110°N, 116.8495°W)
Time: 17:20:54
(UTC-07:00)

Cosmos 2369 Rocket - Pass Details

Date: 19 May 2017
Orbit: 828 x 853 km, 71.0° (Epoch: 22 September)

Event Time Altitude Azimuth Distance (km) Brightness Sun altitude
Rises 21:20:49 0° 334° (NNW) 3,389 6.6 -18.0°
Reaches altitude 10° 21:23:17 10° 330° (NNW) 2,455 5.7 -18.4°
Maximum altitude 21:28:46 56° 253° (WSW) 999 2.7 -19.2°
Enters shadow 21:32:27 21° 183° (S) 1,806 3.6 -19.8°
